Guadalupe Pass, TX

10:42 PM MDT on May 26, 2018 (GMT -0600)
Guadalupe Pass

Weather History for KGDP - August, 2013

Change the Weather History Date:

Monday, August 26, 2013

  Actual Average Record
Temperature  
Mean Temperature 73 °F -  
Max Temperature 82 °F 81 °F 99 °F (2002)
Min Temperature 64 °F 62 °F 57 °F (2001)
Cooling Degree Days 8    
Growing Degree Days 23 (Base 50)    
Moisture  
Dew Point 54 °F    
Average Humidity 50    
Maximum Humidity 73    
Minimum Humidity 34    
Precipitation  
Precipitation 0.00 in - - ()
Sea Level Pressure  
Sea Level Pressure 30.09 in    
Wind  
Wind Speed 19 mph (ENE)    
Max Wind Speed 28 mph    
Max Gust Speed 36 mph    
Visibility 8 miles    
Events      
Averages and records for this station are not official NWS values.
T = Trace of Precipitation, MM = Missing Value Source: NWS Daily Summary

Daily Weather History Graph

Daily Weather History Graph

Search for Another Location

Airport or City:

Astronomy

Aug. 26, 2013 Rise Set
Actual Time 6:31 AM MDT 7:30 PM MDT
Civil Twilight 6:06 AM MDT 7:55 PM MDT
Nautical Twilight 5:36 AM MDT 8:24 PM MDT
Astronomical Twilight 5:05 AM MDT 8:55 PM MDT
Moon 11:08 PM MDT (8/26) 12:10 PM MDT (8/26)
Length of Visible Light 13h 49m
Length of Day
12h 58m
Waning Gibbous, 66% of the Moon is Illuminated
Aug 26
Waning Gibbous
Aug 28
Last Quarter
Sep 5
New
Sep 12
First Quarter
Sep 19
Full

Hourly Weather History & Observations

Time (MDT) Temp. Heat Index Dew Point Humidity Pressure Visibility Wind Dir Wind Speed Gust Speed Precip Events Conditions
12:51 AM 69.1 °F - 55.0 °F 61% 30.07 in 9.0 mi ENE 15.0 mph - N/A   Clear
1:51 AM 69.1 °F - 54.0 °F 58% 30.06 in 9.0 mi ENE 15.0 mph - N/A   Clear
2:51 AM 69.1 °F - 55.0 °F 61% 30.05 in 9.0 mi ENE 18.4 mph - N/A   Clear
3:51 AM 68.0 °F - 55.0 °F 63% 30.05 in 9.0 mi ENE 13.8 mph - N/A   Clear
4:51 AM 66.0 °F - 55.0 °F 68% 30.07 in 9.0 mi NE 16.1 mph - N/A   Clear
5:51 AM 66.0 °F - 55.0 °F 68% 30.07 in 9.0 mi NE 21.9 mph - N/A   Clear
6:51 AM 64.9 °F - 55.9 °F 73% 30.09 in 7.0 mi NE 19.6 mph - N/A   Clear
7:51 AM 69.1 °F - 55.9 °F 63% 30.11 in 8.0 mi NE 15.0 mph - N/A   Clear
8:51 AM 71.1 °F - 57.0 °F 61% 30.11 in 8.0 mi NE 15.0 mph - N/A   Clear
9:51 AM 73.0 °F - 57.0 °F 57% 30.12 in 8.0 mi ENE 15.0 mph - N/A   Clear
10:51 AM 75.9 °F - 57.0 °F 52% 30.11 in 8.0 mi East 18.4 mph - N/A   Clear
11:51 AM 75.9 °F - 57.0 °F 52% 30.11 in 8.0 mi East 21.9 mph 29.9 mph N/A   Scattered Clouds
12:51 PM 80.1 °F 80.2 °F 55.9 °F 43% 30.07 in 8.0 mi ENE 26.5 mph 35.7 mph N/A   Scattered Clouds
1:51 PM 81.0 °F 80.5 °F 54.0 °F 39% 30.05 in 8.0 mi East 27.6 mph - N/A   Partly Cloudy
2:51 PM 81.0 °F - 52.0 °F 36% 30.04 in 8.0 mi ENE 17.3 mph 32.2 mph N/A   Partly Cloudy
3:01 PM 82.0 °F - 51.1 °F 34% 30.28 in 1.0 mi East 20.7 mph 32.2 mph N/A   Haze
3:19 PM 81.0 °F - 52.0 °F 36% 30.27 in 8.0 mi East 23.0 mph 32.2 mph N/A   Partly Cloudy
3:51 PM 81.0 °F 80.4 °F 53.1 °F 38% 30.02 in 2.0 mi East 25.3 mph 33.4 mph N/A   Haze
3:56 PM 81.0 °F - 52.0 °F 36% 30.27 in 0.8 mi East 24.2 mph 33.4 mph N/A   Haze
4:04 PM 82.0 °F - 52.0 °F 35% 30.26 in 3.0 mi East 21.9 mph 31.1 mph N/A   Haze
4:51 PM 80.1 °F - 51.1 °F 36% 30.02 in 9.0 mi East 25.3 mph 33.4 mph N/A   Clear
5:51 PM 79.0 °F - 51.1 °F 38% 30.02 in 9.0 mi East 24.2 mph 31.1 mph N/A   Partly Cloudy
6:51 PM 77.0 °F - 50.0 °F 39% 30.01 in 9.0 mi East 27.6 mph - N/A   Clear
7:51 PM 75.0 °F - 51.1 °F 43% 30.02 in 10.0 mi East 26.5 mph - N/A   Clear
8:51 PM 73.0 °F - 52.0 °F 48% 30.02 in 10.0 mi ENE 21.9 mph - N/A   Clear
9:51 PM 71.1 °F - 53.1 °F 53% 30.04 in 10.0 mi ENE 15.0 mph - N/A   Clear
10:51 PM 71.1 °F - 53.1 °F 53% 30.04 in 10.0 mi ENE 19.6 mph - N/A   Clear
11:51 PM 69.1 °F - 54.0 °F 58% 30.03 in 10.0 mi ENE 20.7 mph - N/A   Clear